Regional Weather Roundup
Issued by NWS

Home | Current Version | Previous Version | Graphics & Text | Print | Product List | Glossary On
Versions: 1 2 3 4 5 6 7 8 9 10 11 12 13 14 15 16 17 18 19 20 21 22 23 24 25 26 27 28 29 30 31 32 33 34 35 36 37 38 39 40 41 42 43 44 45 46 47 48 49 50
000
ASUS45 KCYS 222010
RWRWY

WYOMING REGIONAL WEATHER ROUNDUP
NATIONAL WEATHER SERVICE CHEYENNE WY
100 PM MST WED FEB 22 2017

NOTE:  "FAIR" INDICATES FEW OR NO CLOUDS BELOW 12,000 FEET
WITH NO SIGNIFICANT WEATHER AND/OR OBSTRUCTIONS TO VISIBILITY.

WYZ001-222100-
YELLOWSTONE NATIONAL PARK

CITY           SKY/WX    TMP DP  RH WIND       PRES   REMARKS
LK YELLOWSTONE   N/A     25  14  63 VRB7      29.84F WCI  17
W YELLOWSTONE  NOT AVBL

$$
WYZ002>013-054>058-071-098>099-222100-
NORTHERN WYOMING

CITY           SKY/WX    TMP DP  RH WIND       PRES   REMARKS
JACKSON        CLOUDY    30  21  69 S12       29.87F WCI  21
CODY           CLOUDY    38  21  50 NE8       29.84F WCI  32
GREYBULL       FAIR      46  21  37 N5        29.82F
WORLAND        FAIR      43  22  43 E6        29.82F
SHERIDAN       CLOUDY    41  28  60 NW10      29.85F
BUFFALO        CLOUDY    39  26  59 N20       29.83F WCI  29
GILLETTE         N/A     45  26  47 NW22      29.81F
HULETT         MOCLDY    43  28  56 NW12G17   29.82S
NEWCASTLE      FAIR      45  23  42 NW17G26   29.82S

$$
WYZ014>020-022>026-101>103-222100-
CENTRAL WYOMING

CITY           SKY/WX    TMP DP  RH WIND       PRES   REMARKS
BIG PINEY      FAIR      27  20  75 E5        29.89F WCI  22
PINEDALE       MOCLDY    28  19  69 NW3       29.89F
DUBOIS         FAIR      30  12  47 NW13      29.81F WCI  20
LANDER         FAIR      41  19  41 E7        29.79
RIVERTON       FAIR      40  16  37 NW13      29.83F WCI  32
CASPER         FAIR      41  15  35 W8        29.84F
DOUGLAS        FAIR      46  19  34 NW17      29.83F

$$
WYZ021-027>030-104>119-222100-
SOUTHERN WYOMING

CITY           SKY/WX    TMP DP  RH WIND       PRES   REMARKS
EVANSTON       LGT SNOW  29  24  82 CALM      29.86F
KEMMERER         N/A     32  23  69 NW3       29.88F
FORT BRIDGER   CLOUDY    31  28  90 N3        29.91F
ROCK SPRINGS   LGT SNOW  30  23  75 N3        29.89F
DIXON          LGT SNOW  33  28  83 CALM      29.92F
RAWLINS        CLOUDY    31  24  75 SW9       29.87F WCI  23
SARATOGA       CLOUDY    32  27  80 SE9       29.89F WCI  24
LARAMIE        CLOUDY    33  25  72 CALM      29.85F
CHEYENNE       CLOUDY    43  18  36 NW16G25   29.82F
TORRINGTON     PTSUNNY   53  16  23 W21G29    29.81F
PINE BLUFFS    CLOUDY    50  12  22 NW23G30   29.83F

$$



USA.gov is the U.S. government's official web portal to all federal, state and local government web resources and services.